Theta_e
289 288 285 285 285 285 284 283 286 284 282 281 279 280 279 279 281 281 281 281 282 283 283 284 283 284 286 288 289 287 281 281 281 281 281 282 281 281 281 281 282 282 282 283 282 280 280 280 280 279 278 278 279 279 278 279 280 280 281 283 281 282 282 284 282 282 282 281 281 281 281 280 281 281 283 283 282 283 282 283 283 282 282 281 281 282
290 286 286 287 287 285 284 281 279 280 280 282 281 279 280 279 280 284 283 282 280 283 280 280 280 283 285 287 289 287 281 282 281 281 282 282 282 282 282 282 282 282 281 281 280 279 279 279 279 279 278 280 279 279 278 279 280 280 280 280 281 281 282 282 282 282 283 281 281 280 280 280 281 281 280 281 281 282 284 282 282 282 281 281 281 281
284 285 289 284 283 280 278 279 280 282 281 280 281 279 279 281 280 282 281 280 281 282 281 281 281 284 287 288 290 290 287 288 285 284 286 284 283 283 282 282 282 281 281 281 281 280 279 279 279 278 278 278 279 279 280 279 278 279 279 280 281 281 281 282 282 284 281 281 282 281 281 280 280 281 282 281 282 283 282 281 281 281 281 281 280 280
288 284 286 284 281 282 280 279 280 280 279 279 279 279 281 281 281 281 280 280 281 282 281 282 281 283 286 288 288 291 288 288 286 285 285 285 285 284 283 283 282 281 281 280 280 279 279 279 278 278 277 278 278 278 278 278 279 279 281 280 280 281 281 281 281 285 283 282 282 283 282 281 281 280 283 283 282 281 280 280 280 280 280 280 280 279
289 287 281 280 282 284 282 280 280 280 281 279 280 280 280 281 281 281 281 280 280 280 279 281 284 286 286 285 286 283 279 284 285 284 283 283 284 284 283 283 283 282 282 281 280 279 278 278 277 277 278 278 277 278 278 278 279 280 280 280 280 280 280 280 283 283 281 282 280 280 280 281 280 280 280 279 278 280 280 281 279 279 279 280 279 279
287 286 281 282 282 283 283 281 280 282 282 276 279 283 283 282 281 279 279 280 278 278 279 280 281 279 277 281 283 284 282 282 281 283 285 284 283 282 282 283 282 283 282 282 281 279 279 278 278 277 277 277 278 278 278 278 279 279 279 279 279 279 280 280 280 281 281 281 279 278 277 277 277 277 277 277 277 278 278 278 279 279 279 279 279 279
287 282 283 284 282 282 283 281 279 283 279 281 282 280 281 280 281 280 279 281 276 275 280 279 279 279 279 284 282 282 282 284 284 281 284 284 283 282 283 283 282 282 281 281 280 279 278 278 277 277 277 277 277 278 278 277 278 278 279 278 279 279 279 280 280 280 281 279 278 278 277 277 277 276 277 278 278 278 278 279 278 278 278 278 278 278
283 283 281 282 282 281 282 280 281 283 281 280 280 278 280 280 282 279 279 281 279 278 279 279 281 278 279 282 287 287 284 285 285 286 286 285 283 283 283 283 282 281 281 281 280 279 279 278 278 278 278 277 278 279 277 277 277 278 278 278 278 279 281 280 280 279 280 279 278 277 277 278 277 277 277 277 278 278 279 278 278 278 278 278 278 278
283 282 282 282 281 280 282 280 280 284 283 279 281 279 279 281 279 278 280 277 276 276 277 276 279 275 275 275 277 278 281 283 284 286 286 286 285 283 283 282 282 282 281 281 279 278 278 278 277 278 278 278 277 277 277 277 278 278 278 278 278 278 278 279 278 280 279 280 279 278 277 276 278 278 278 278 279 278 277 276 277 277 277 277 277 278
285 283 282 283 282 282 281 279 280 284 283 282 280 279 279 278 278 277 275 279 274 273 278 275 278 274 280 279 280 276 279 280 282 285 286 286 286 283 282 282 281 280 280 279 280 279 278 278 278 277 278 277 277 277 278 277 277 277 277 278 278 277 277 278 278 278 278 277 279 277 276 276 276 277 277 276 276 276 276 275 276 276 276 276 276 277
285 286 285 284 284 282 280 280 280 281 281 281 280 281 279 277 275 275 274 272 272 273 279 280 278 279 276 279 278 280 280 282 284 282 283 283 284 281 281 281 281 280 279 278 278 278 278 277 277 277 276 277 276 276 276 277 277 276 277 276 276 277 277 277 277 277 277 277 277 276 276 276 276 276 276 275 275 275 275 275 275 275 275 276 276 276
283 284 284 283 283 281 281 281 280 280 279 281 281 279 282 282 275 270 264 269 270 273 272 274 277 279 273 277 279 281 279 280 284 286 286 287 288 283 279 280 280 279 278 278 277 276 277 276 276 276 276 276 276 275 276 276 276 276 276 276 276 276 276 276 277 277 277 277 276 276 276 276 276 275 275 275 274 274 274 274 274 275 275 275 275 275
283 284 282 284 285 284 281 281 281 280 281 281 278 276 275 271 270 272 266 270 268 274 275 271 275 275 276 282 280 281 283 282 281 284 287 288 287 281 278 279 279 279 277 277 276 276 276 276 276 276 276 276 275 276 276 276 276 276 276 276 275 275 276 276 276 276 276 276 276 276 276 276 276 276 275 275 274 274 274 274 274 274 274 274 274 274
282 280 281 284 284 284 285 283 278 279 279 280 281 275 272 270 268 268 267 263 268 271 273 275 275 275 282 283 286 287 289 288 288 285 285 285 282 280 279 279 278 277 277 277 276 276 276 277 276 276 276 276 276 275 276 275 277 276 276 275 275 275 275 275 276 275 275 275 276 275 275 275 275 275 275 274 274 274 274 274 274 274 274 273 273 274
275 280 281 284 282 284 287 288 285 279 279 281 279 282 279 271 266 267 265 270 276 274 273 274 272 273 274 278 280 285 288 287 282 278 278 276 276 278 279 278 277 276 276 276 276 276 276 276 276 276 276 275 275 275 275 275 275 275 275 275 275 275 275 275 275 275 275 275 275 275 275 275 275 274 274 274 275 274 274 274 273 273 274 273 273 274
281 281 280 283 281 284 285 282 281 281 280 279 278 280 276 279 277 275 271 268 270 272 274 268 276 275 281 281 281 276 277 278 277 278 278 278 277 278 277 277 277 276 276 276 276 276 276 276 276 275 275 275 274 275 274 275 275 275 275 275 275 275 275 275 276 275 275 275 275 275 274 274 275 275 275 274 274 274 274 273 273 273 273 273 274 274
280 278 281 282 281 283 281 281 283 283 281 279 280 277 279 281 282 276 272 269 268 265 276 268 275 280 279 284 282 282 279 281 279 278 278 277 276 275 277 277 276 276 275 275 276 276 275 275 275 275 275 274 274 274 274 275 275 275 275 275 274 274 274 274 275 274 274 274 274 274 274 273 273 273 273 273 273 273 273 273 273 273 273 273 274 274
283 283 281 282 284 281 278 279 280 277 283 280 275 279 280 281 279 277 272 268 263 266 274 269 276 279 277 278 277 278 280 281 280 281 280 276 274 275 277 277 276 275 275 275 275 275 275 275 275 274 274 274 274 274 274 275 275 275 274 274 274 274 273 274 274 274 274 273 273 273 273 273 273 273 272 272 272 272 272 272 272 273 272 272 273 274
286 283 283 279 280 282 280 281 283 282 281 280 277 281 280 275 274 274 268 270 266 266 268 274 276 279 281 281 281 279 277 279 281 281 278 276 275 276 277 277 275 275 275 275 275 275 275 275 275 274 274 274 274 275 273 274 274 273 273 273 273 273 273 274 274 273 273 273 273 273 273 272 272 272 272 272 272 272 271 271 271 272 272 272 273 273
287 283 282 280 280 281 281 282 278 278 280 280 281 280 280 278 272 271 276 269 270 269 266 275 278 277 281 281 281 286 280 280 280 280 279 279 279 278 278 277 275 275 275 275 275 275 275 275 274 274 274 273 273 273 273 273 273 273 273 273 273 274 273 273 272 272 272 272 272 272 272 272 272 272 271 271 271 271 271 271 271 271 271 271 272 272
284 283 282 281 279 281 278 280 282 281 278 277 278 275 275 275 277 276 274 272 272 268 269 268 273 279 283 285 284 286 284 281 282 284 281 279 278 278 278 277 276 275 275 275 275 275 275 274 274 274 273 272 272 273 273 272 272 272 272 272 273 272 272 271 272 271 271 271 271 271 271 270 271 270 270 270 270 270 270 270 271 271 271 271 271 271
283 281 283 280 277 278 281 281 282 283 285 282 282 280 281 277 273 270 274 273 269 273 269 268 274 280 285 285 286 284 284 283 283 285 284 281 279 278 277 277 276 276 275 275 275 275 274 274 274 273 272 272 272 272 272 272 271 271 271 271 271 271 270 270 270 270 270 270 270 269 269 269 269 269 269 269 269 269 269 269 270 270 270 270 270 271
286 280 281 279 282 282 280 281 276 279 279 281 281 281 283 282 279 274 274 274 266 275 271 270 268 278 284 283 282 283 283 283 284 282 282 280 278 277 277 277 276 276 276 275 275 275 275 274 274 273 272 272 272 272 271 271 271 271 271 270 270 270 270 270 270 270 269 269 269 269 269 269 268 268 268 268 268 268 268 269 269 270 269 269 270 270
290 280 278 283 280 276 279 278 277 278 281 281 281 279 280 280 282 282 281 276 273 270 272 269 270 279 284 277 281 279 277 278 275 277 280 279 278 277 276 275 275 275 275 275 274 274 274 274 273 272 272 272 272 271 271 271 271 271 270 270 270 269 269 269 269 269 269 269 268 268 268 268 268 267 267 267 267 267 268 268 268 269 269 269 269 269
282 282 281 276 274 276 275 277 278 279 278 277 280 280 281 283 282 278 275 274 272 277 274 275 272 278 287 275 277 274 276 277 276 275 276 278 277 276 275 275 275 275 274 273 273 274 273 273 272 273 273 272 272 271 271 271 270 270 270 269 269 269 269 269 268 268 268 268 267 267 267 267 267 267 267 267 267 267 267 267 268 269 269 269 269 269
286 282 281 275 275 273 273 272 275 275 277 277 274 275 280 280 281 278 277 275 274 278 275 277 278 284 289 282 277 278 276 279 279 276 276 276 277 276 275 275 274 274 274 274 273 273 273 273 273 272 272 272 272 271 271 270 270 270 269 269 269 268 268 268 268 268 267 267 267 266 266 266 266 266 266 266 266 267 267 267 268 268 268 268 267 267
281 281 284 284 281 279 281 282 280 279 276 276 277 278 279 279 282 282 282 278 275 278 277 279 281 282 284 286 287 285 283 280 285 285 278 277 276 275 275 275 275 274 274 274 274 274 273 272 272 272 272 272 271 271 271 270 270 269 268 268 268 268 268 267 267 267 266 266 266 266 266 266 266 266 266 266 266 267 267 267 267 266 266 266 265 265
278 281 283 284 285 285 286 285 281 283 278 280 280 278 280 279 279 279 278 277 283 276 275 282 283 281 282 286 287 287 289 289 289 289 287 281 279 277 276 275 277 273 273 274 274 273 273 274 273 272 272 271 271 270 270 270 269 269 268 268 268 267 267 267 266 266 266 266 265 265 265 266 266 266 266 266 266 266 266 266 265 265 264 264 264 263
283 283 285 284 283 285 286 286 283 280 282 281 280 281 280 280 279 277 278 281 282 279 277 282 283 281 284 286 288 289 289 289 289 290 289 285 282 277 275 274 274 274 273 273 274 274 274 273 273 272 271 271 271 270 270 269 268 267 267 267 267 267 266 266 266 265 265 265 265 265 265 266 266 266 266 266 265 265 264 264 263 263 263 262 262 263
281 283 285 285 283 283 284 284 283 279 280 281 280 280 281 280 279 279 280 282 281 281 283 283 283 283 286 287 289 290 291 290 290 289 281 279 279 277 275 275 274 274 274 273 274 274 274 273 273 272 271 271 270 270 269 268 267 267 267 266 266 266 266 265 265 265 264 264 264 265 265 265 265 265 265 264 263 263 262 262 262 261 261 261 261 261
284 282 288 284 282 282 284 284 282 282 281 281 282 283 282 280 279 280 281 282 282 281 282 282 282 282 288 290 289 291 290 289 288 287 288 286 281 278 276 275 275 274 274 274 274 274 274 273 272 272 271 271 270 269 268 267 266 266 266 266 265 265 265 265 264 264 264 264 264 264 264 264 264 264 263 262 262 261 261 260 260 259 259 260 260 260
284 279 280 277 280 281 285 284 281 281 281 280 281 283 283 282 279 281 279 281 280 279 281 280 279 280 286 289 289 288 287 287 287 288 288 288 286 280 278 277 275 275 275 274 274 274 273 273 272 271 271 270 269 269 267 266 266 266 265 265 265 265 264 264 263 263 263 263 264 264 264 263 263 262 261 261 260 260 259 259 259 258 259 259 259 260
282 280 281 281 279 279 283 278 279 279 280 279 280 283 284 284 285 285 285 284 283 283 280 278 280 286 287 288 287 287 288 287 287 288 287 287 284 279 279 278 277 276 275 275 274 274 274 273 273 272 271 270 269 268 267 266 266 265 265 264 264 264 263 263 262 263 263 263 263 263 263 261 261 260 259 259 259 258 258 258 258 258 258 258 259 260
278 282 282 284 279 280 279 277 279 278 274 276 286 287 287 285 285 283 283 285 287 286 283 286 286 288 288 288 287 287 288 289 289 289 287 287 284 279 278 278 278 277 276 275 275 275 274 274 273 272 271 270 268 267 267 267 266 265 265 264 264 263 263 262 262 262 262 262 262 262 261 260 259 258 258 258 258 258 257 257 257 258 259 259 260 260
281 281 281 283 279 279 274 276 274 273 275 286 286 285 284 286 286 285 286 287 287 288 287 286 286 287 288 289 289 289 290 290 291 286 282 282 284 282 279 278 277 277 276 275 274 274 274 273 272 270 269 267 267 267 266 265 265 264 263 263 262 262 261 260 261 261 261 261 261 260 259 259 258 257 257 257 257 257 257 257 257 258 259 259 260 261
280 281 280 280 279 274 273 276 272 273 285 286 287 287 282 285 283 283 283 286 287 288 287 286 287 288 289 289 290 290 290 288 283 281 281 281 282 282 281 279 278 277 276 275 275 275 274 273 271 270 268 268 267 266 265 264 264 263 262 262 262 261 260 260 260 260 260 259 259 258 258 257 256 256 256 256 256 256 256 257 257 258 259 260 261 261
285 283 283 280 284 277 278 277 277 283 283 285 285 287 282 282 278 282 280 284 289 289 288 286 287 288 289 289 289 290 281 280 283 287 283 282 280 281 282 281 280 278 277 276 276 275 274 273 271 269 267 266 266 265 265 264 263 262 261 260 259 260 260 260 259 258 259 258 258 257 257 257 256 255 255 256 255 256 256 257 257 258 260 260 260 260
286 284 284 281 280 284 278 277 278 277 274 280 287 289 285 287 286 286 284 283 289 291 290 287 287 288 288 288 288 283 276 280 281 285 287 282 280 279 278 277 276 276 276 275 274 272 271 270 268 267 266 265 265 264 264 263 262 261 260 260 260 258 259 258 258 259 258 257 257 257 256 256 255 255 255 255 255 255 256 257 258 259 260 259 259 259
285 286 286 283 281 282 279 276 275 275 278 286 287 284 283 285 286 283 282 280 289 288 287 289 287 288 288 287 284 278 279 277 280 285 287 278 278 277 277 275 275 275 275 273 272 270 268 267 266 266 265 265 264 264 263 262 261 260 260 260 259 259 258 258 257 257 257 257 257 256 255 255 255 255 255 255 255 256 256 257 258 259 259 259 259 259
280 281 281 279 279 281 280 278 276 280 280 285 285 279 280 283 286 284 273 277 288 286 288 288 288 288 287 286 280 280 280 279 281 286 281 278 277 276 276 275 274 273 272 271 270 268 267 266 265 265 264 264 264 263 262 261 261 260 260 259 259 258 257 257 257 257 257 256 256 255 255 255 254 254 254 254 255 256 257 258 258 258 259 259 259 259
278 278 280 277 279 280 281 279 281 282 287 289 286 279 282 286 286 278 275 284 285 284 286 288 288 288 287 282 280 280 282 287 285 279 274 276 275 274 274 274 273 272 269 268 268 269 266 266 266 265 264 264 263 262 262 261 260 259 259 259 258 258 258 257 257 256 255 255 254 254 254 254 254 254 254 255 255 256 257 258 258 258 258 258 258 259
277 279 279 281 278 278 279 278 278 283 287 291 282 282 285 284 276 278 287 285 289 286 282 286 287 287 285 282 282 284 285 284 274 275 275 275 275 274 273 270 268 268 268 269 268 266 266 265 264 264 263 263 262 262 261 260 259 259 259 258 258 258 258 257 256 254 253 253 253 253 253 253 254 254 254 255 256 256 256 257 257 258 258 258 258 258
279 279 274 278 280 281 280 278 277 274 285 292 282 281 284 284 285 291 292 288 286 286 282 283 285 285 284 283 283 284 281 275 277 275 275 274 273 271 269 268 267 267 266 266 265 266 265 264 263 263 262 262 261 261 260 258 258 258 258 257 258 257 257 255 254 254 252 252 252 252 252 252 253 254 254 255 256 256 255 256 257 257 257 258 258 258
287 281 278 281 284 277 277 275 276 284 289 286 287 284 284 288 293 294 292 290 292 287 284 284 284 284 284 285 283 282 280 277 275 275 274 274 273 271 269 268 268 267 266 266 265 265 265 263 262 261 261 261 261 260 259 258 257 257 257 257 257 257 256 254 253 252 251 250 251 251 252 252 253 253 254 254 255 255 255 255 256 257 257 258 258 258
288 286 286 282 286 284 281 284 288 290 289 286 291 292 292 290 292 292 291 291 291 288 284 286 285 284 284 284 284 282 279 278 278 275 275 274 272 270 269 268 267 266 266 264 264 264 264 262 261 260 260 260 259 259 258 258 256 256 256 257 256 255 254 253 251 250 249 249 250 250 251 251 252 253 253 254 254 254 255 255 255 255 257 258 259 260
292 293 292 289 286 290 291 291 290 287 284 285 289 293 293 292 291 290 289 289 289 290 285 286 287 285 283 284 283 280 281 280 277 275 275 273 271 270 269 268 267 267 265 264 264 264 263 261 260 259 258 258 258 257 257 257 256 254 256 256 255 254 253 251 248 249 248 248 249 249 250 251 252 253 254 254 254 254 255 255 255 256 257 259 260 260
290 291 289 286 288 286 281 291 290 289 287 285 287 289 292 292 292 291 289 289 290 289 284 286 287 286 284 283 284 283 281 280 278 276 275 272 270 269 268 267 266 265 264 263 263 262 261 260 259 258 258 257 257 257 257 256 256 255 255 254 254 253 251 248 249 249 248 248 249 249 250 251 252 253 254 253 254 254 255 255 255 256 258 259 260 260
285 291 287 286 287 286 286 291 292 292 292 289 289 288 288 289 288 288 289 290 290 288 286 286 285 285 284 282 283 283 282 279 277 276 273 272 271 269 268 267 265 265 264 264 263 261 260 259 258 258 257 257 257 256 256 255 255 254 254 254 253 251 249 249 249 248 247 247 249 249 250 250 254 253 253 253 253 253 254 255 256 257 258 259 260 260
290 291 284 287 287 287 290 290 291 291 289 290 291 291 291 291 290 289 287 286 285 285 284 283 284 285 283 283 283 283 281 278 278 277 274 272 271 269 268 267 266 265 264 262 261 260 259 259 258 258 258 257 257 255 255 254 254 254 254 253 252 250 249 249 249 249 247 249 248 249 250 251 250 252 252 252 253 254 255 255 257 259 259 261 262 264
287 286 289 287 284 284 285 287 290 286 285 289 290 292 292 292 291 290 287 285 284 285 285 283 283 284 284 284 283 283 281 279 277 276 274 273 271 269 268 266 265 264 263 262 260 260 260 259 258 258 258 257 256 255 254 253 253 253 253 252 251 250 248 248 248 247 248 248 248 249 250 250 250 251 251 251 252 253 254 258 263 262 261 261 266 268
289 289 289 286 285 285 289 292 293 292 292 293 294 294 294 293 292 289 288 287 286 286 286 285 284 282 281 282 283 282 282 280 277 276 274 273 271 269 268 266 264 263 262 260 259 260 259 259 258 258 257 256 255 254 253 253 252 252 252 252 252 250 249 248 248 247 247 248 247 250 251 250 251 251 251 251 252 252 253 253 255 262 264 265 266 267
Wind_Speed
1 2 5 6 8 8 6 8 6 5 5 2 2 2 6 6 9 5 4 3 0 1 10 13 9 13 18 20 18 6 8 11 9 10 12 11 11 12 13 15 16 15 15 7 7 7 8 8 7 5 4 4 4 4 4 4 4 4 4 2 3 3 2 2 2 2 2 2 4 2 3 5 5 5 5 4 4 4 4 1 1 1 1 3 4 5
2 2 10 9 9 7 5 4 6 6 2 2 2 3 8 4 10 6 2 1 3 2 6 4 4 12 16 18 18 7 7 14 13 12 14 14 14 13 15 17 16 14 3 6 8 8 7 7 6 5 5 4 5 5 4 5 5 4 3 4 4 2 2 3 3 3 2 2 2 3 5 5 6 6 5 6 5 5 4 2 3 2 2 3 4 5
1 9 10 5 3 6 5 5 3 4 3 1 3 3 3 9 5 10 3 2 0 2 9 7 10 16 18 18 20 18 14 12 8 14 17 14 15 14 14 15 12 8 11 10 12 9 9 9 7 6 5 5 6 7 7 5 3 3 4 4 3 3 3 3 3 2 2 2 2 2 4 4 5 5 5 5 6 6 5 4 4 4 4 5 6 6
5 7 10 2 6 6 3 3 4 3 2 3 1 1 9 3 3 8 1 3 1 2 6 6 16 18 18 16 22 20 7 10 7 12 15 9 14 16 16 14 14 15 14 16 16 15 10 9 7 5 6 7 6 5 4 4 5 3 3 3 3 3 3 3 3 2 2 3 3 4 5 6 6 6 4 5 5 5 3 5 3 3 3 3 4 4
11 2 0 5 3 4 3 1 4 3 6 2 5 5 5 5 6 7 5 5 5 2 1 8 14 14 9 9 8 3 3 1 7 6 9 9 11 8 5 8 14 17 17 15 13 11 11 11 10 10 8 6 7 7 7 6 5 4 4 4 3 3 3 3 3 3 2 2 3 3 4 5 5 4 5 4 5 4 4 4 3 4 3 4 4 5
14 3 3 4 1 1 4 2 5 6 5 3 7 11 9 6 6 4 4 5 5 3 3 5 11 6 1 3 8 7 2 4 4 6 14 10 8 7 11 13 10 12 12 16 16 16 15 13 9 8 7 8 7 8 7 6 5 4 3 3 3 3 3 3 3 3 2 2 3 3 5 6 4 6 5 5 7 8 7 7 4 4 3 4 4 4
6 2 1 4 4 2 2 4 3 6 5 1 5 3 7 3 1 1 3 5 6 2 2 3 3 19 4 2 4 5 2 9 7 7 15 8 8 9 13 11 11 13 12 10 10 11 13 12 11 10 10 9 9 9 6 4 4 3 3 3 3 3 3 3 3 3 2 3 2 3 4 4 5 6 5 4 5 6 7 5 7 6 5 5 6 6
3 1 5 4 4 3 3 4 5 10 5 5 1 4 5 4 1 1 1 1 6 0 4 2 5 11 19 7 9 7 6 10 13 14 13 12 10 12 13 11 11 12 13 13 14 14 13 13 15 14 12 10 11 8 5 4 3 4 3 3 3 3 3 3 3 3 3 3 3 3 4 4 5 5 7 6 6 5 5 7 8 7 6 6 5 7
4 3 2 3 1 3 7 5 5 8 7 3 2 4 3 3 3 3 1 2 2 5 9 5 1 3 10 3 4 2 5 9 14 15 13 10 10 12 12 12 12 12 12 12 13 15 16 16 13 10 11 9 8 6 6 6 4 3 3 2 2 3 3 3 3 3 3 3 3 4 4 5 5 5 6 5 6 6 6 7 7 7 7 7 6 6
1 2 6 6 5 7 4 1 4 10 4 1 4 5 6 6 5 2 1 0 5 3 15 7 8 5 21 4 5 4 1 7 11 12 13 11 9 7 9 8 8 7 8 10 13 13 14 12 11 9 7 7 7 6 4 3 3 3 2 2 2 3 3 3 3 3 3 3 3 3 4 5 6 5 6 5 7 6 5 7 8 7 7 7 7 6
0 4 5 4 5 3 5 2 1 2 2 4 4 1 3 5 3 2 6 1 3 8 13 6 15 8 12 2 8 9 9 11 9 6 7 8 9 5 5 6 8 9 10 10 11 10 10 8 9 8 9 8 5 3 3 3 3 3 2 2 2 3 3 3 3 3 3 3 3 4 4 4 6 7 6 8 8 6 7 8 9 8 8 7 8 7
1 2 1 2 4 4 4 4 3 2 2 3 1 2 6 4 5 3 4 4 1 10 3 2 11 8 10 5 6 6 3 4 8 7 7 8 11 5 4 4 7 9 9 9 9 9 9 8 7 6 8 6 5 3 4 4 3 3 3 2 3 3 3 3 3 3 3 3 3 3 3 5 5 6 6 8 9 8 9 9 10 9 9 9 9 8
5 8 2 1 4 8 2 5 1 2 2 3 4 4 1 6 7 6 3 2 6 10 1 2 5 5 17 20 4 6 10 7 9 8 8 10 10 2 3 6 7 7 7 9 10 10 11 13 12 10 8 6 5 7 6 5 4 3 3 3 3 3 3 3 3 3 3 3 3 3 3 4 5 6 6 8 9 7 8 8 10 10 10 10 10 9
8 1 1 4 2 5 7 5 2 1 2 6 6 5 4 1 1 6 5 2 7 6 3 2 2 10 12 10 16 21 18 13 12 11 9 9 7 4 4 5 6 8 9 10 11 12 13 12 11 10 10 8 7 6 6 4 4 3 3 3 3 4 3 3 3 3 3 3 3 3 3 4 5 6 6 7 8 8 7 7 9 10 10 10 11 11
4 8 6 7 4 3 8 9 8 6 9 9 3 8 8 8 5 5 3 6 11 8 1 5 2 9 2 5 1 11 11 9 6 5 6 4 4 5 5 5 6 7 7 9 11 12 13 12 11 10 9 8 7 6 5 4 4 4 3 3 3 3 3 3 3 3 3 3 3 3 3 5 4 6 6 6 6 8 9 9 9 10 9 10 11 10
9 8 4 1 1 3 9 0 5 6 4 2 2 5 5 9 6 6 5 3 5 8 9 4 9 4 7 1 1 2 3 7 4 7 5 7 1 3 4 7 8 8 9 9 10 11 11 10 9 9 7 6 6 6 5 5 4 3 3 3 3 3 3 3 3 3 3 4 4 4 5 5 5 6 6 6 6 7 8 10 10 11 10 10 10 10
2 6 0 3 3 1 2 2 1 3 6 3 6 6 7 1 4 2 3 1 1 3 18 3 11 11 3 11 9 8 4 11 5 9 7 7 2 1 7 7 6 8 9 10 12 12 11 8 9 8 7 6 5 5 6 5 4 4 3 2 3 3 3 3 3 3 3 4 4 5 5 5 5 5 6 8 9 9 9 9 10 10 11 11 10 12
5 6 1 4 5 1 1 0 0 4 3 8 3 8 2 2 4 5 5 3 2 4 12 2 14 22 5 14 4 2 7 7 7 12 9 3 3 5 11 8 8 10 10 10 9 9 10 10 10 8 7 7 7 6 5 4 3 3 3 2 3 3 3 3 3 3 3 4 5 5 5 5 5 6 7 7 9 9 9 10 9 10 10 11 11 12
5 9 2 1 1 2 1 1 1 1 1 2 2 2 5 4 1 1 4 4 3 5 9 12 8 16 15 16 2 6 7 8 10 11 5 6 7 12 12 9 7 6 7 10 12 11 11 12 11 10 9 6 5 4 4 4 3 3 2 2 3 4 4 3 3 3 3 3 4 5 5 6 6 5 7 7 8 9 10 11 10 11 11 12 12 12
0 5 3 1 3 1 1 5 8 4 1 1 0 1 1 1 2 5 7 3 4 7 3 19 13 22 3 9 5 11 10 10 9 7 9 12 13 13 11 9 10 10 12 11 12 12 13 11 10 10 9 7 7 5 4 4 3 3 3 3 3 3 3 3 3 3 4 4 4 6 5 5 5 6 7 7 8 9 10 11 11 12 12 12 12 12
4 4 10 1 4 2 4 8 14 15 11 2 2 2 1 1 2 4 1 5 6 4 7 5 14 24 6 10 9 11 8 12 10 12 9 10 13 13 11 11 10 12 12 13 13 13 12 11 9 7 5 5 4 4 4 5 5 4 3 3 3 4 4 3 3 4 4 4 5 5 7 7 6 7 7 8 8 10 10 10 11 11 11 12 12 12
3 2 12 3 0 7 11 1 2 7 14 15 15 14 16 10 4 2 13 3 2 5 7 6 20 21 10 6 9 7 9 9 10 11 9 10 12 11 11 10 11 11 13 12 12 11 11 10 9 6 5 4 5 5 4 4 3 3 4 4 3 3 3 3 4 3 4 4 4 5 6 7 5 7 7 8 9 10 10 10 10 11 12 13 13 13
5 3 2 9 13 13 2 0 1 1 1 1 6 8 11 10 6 6 12 10 1 8 3 2 3 28 3 7 6 6 8 10 9 8 8 9 10 10 11 9 9 10 10 11 11 11 11 10 8 8 8 8 8 6 5 4 4 4 3 3 2 3 3 3 4 4 4 4 5 6 6 6 7 7 8 9 9 10 10 11 11 11 13 13 13 12
4 2 2 12 6 3 1 1 1 1 0 3 6 3 6 12 17 16 12 4 7 2 5 0 3 25 10 3 5 4 3 2 0 6 8 7 7 8 8 8 10 10 9 7 8 8 9 7 6 7 8 8 7 6 6 5 3 3 2 2 2 3 3 4 4 3 3 4 5 5 6 7 7 8 8 9 8 10 10 11 11 11 12 13 12 13
4 4 5 3 4 7 3 2 1 2 2 6 8 8 11 8 7 3 4 1 2 14 8 9 18 24 13 3 2 1 2 6 6 6 7 7 7 8 8 8 8 8 7 9 11 11 8 8 11 10 9 8 7 5 4 4 3 2 2 2 3 3 3 3 2 3 3 4 6 7 7 8 8 8 9 9 9 10 10 11 11 10 12 12 13 14
6 6 8 9 16 15 14 11 11 9 13 4 2 1 8 17 14 3 11 7 12 8 14 11 22 28 19 4 5 3 4 7 7 8 6 9 8 7 7 8 9 10 12 12 10 9 15 14 8 7 8 6 6 6 4 3 3 3 3 3 3 3 3 2 2 3 3 4 6 7 8 8 8 9 9 10 10 10 10 11 11 11 11 12 15 16
4 4 11 16 16 18 20 14 1 8 6 8 11 13 16 13 17 14 11 10 16 13 12 23 30 22 22 32 22 10 10 9 14 10 10 11 10 9 7 9 11 12 12 14 14 12 6 7 12 9 7 7 5 4 4 4 4 3 3 3 3 2 1 2 2 3 4 5 6 7 8 8 8 9 9 9 10 10 10 10 10 11 12 12 13 15
3 7 15 21 24 23 19 18 6 11 9 12 14 14 18 18 15 18 17 23 18 6 20 23 21 16 28 36 25 16 20 16 17 17 13 7 9 11 12 9 7 6 8 8 9 12 16 14 8 8 8 6 6 5 5 4 4 3 3 3 2 1 1 2 3 4 5 6 7 7 8 8 8 9 9 9 9 10 10 10 11 11 11 12 14 14
6 12 18 18 20 18 18 21 6 6 9 9 15 18 19 20 16 20 23 27 25 18 25 24 20 21 31 31 20 19 20 14 19 20 12 9 6 5 5 8 11 12 11 11 14 14 12 13 12 9 8 8 7 8 6 5 4 3 2 2 0 0 1 2 3 4 5 6 7 7 7 8 8 8 9 9 10 10 10 11 11 11 11 12 13 13
1 12 13 11 15 14 20 19 8 9 6 7 10 16 21 17 21 25 28 32 30 23 24 27 28 32 32 26 17 22 16 12 16 14 4 4 7 7 9 10 11 12 13 15 15 15 13 11 9 10 10 10 10 8 6 5 5 4 2 1 0 1 1 3 3 4 6 6 7 7 8 8 8 8 9 9 10 10 11 11 11 11 11 12 12 12
7 11 14 10 12 17 19 13 7 11 8 14 18 22 22 12 15 24 28 26 22 19 26 31 30 32 31 21 14 20 16 10 14 18 21 15 9 9 11 11 11 13 14 14 12 13 12 10 10 11 12 11 9 9 8 6 5 4 2 1 1 1 1 2 3 4 5 7 7 7 8 8 8 8 9 8 9 9 10 12 11 11 12 12 11 12
7 5 1 2 10 16 14 12 7 7 5 11 21 31 28 19 19 25 20 20 15 22 26 20 21 26 28 22 16 15 16 17 21 22 20 17 14 9 11 12 12 13 14 15 14 12 12 14 14 14 13 11 10 9 8 7 6 4 3 2 1 1 1 2 2 5 6 7 7 7 7 7 8 8 8 8 9 10 11 11 11 11 12 12 13 12
10 4 6 7 12 16 10 7 6 4 1 10 24 35 27 20 26 23 19 17 22 27 18 19 27 27 24 16 17 21 18 18 19 19 18 16 9 10 14 15 14 14 15 15 15 16 17 17 17 14 11 10 10 10 8 8 7 5 4 3 1 1 1 2 3 5 6 6 6 6 6 6 7 7 8 8 9 10 10 11 11 12 12 13 12 13
3 8 10 7 11 11 2 5 5 4 12 23 14 0 13 23 22 22 23 28 32 20 19 23 26 25 19 16 19 24 23 23 20 14 8 11 10 11 13 13 14 15 13 12 14 17 16 12 10 11 12 11 10 9 8 7 6 5 4 4 2 1 1 3 5 5 7 5 4 6 6 5 6 7 7 8 9 9 10 11 11 11 11 12 12 12
11 10 11 5 6 9 4 3 2 17 22 19 7 4 4 8 11 19 24 30 33 26 22 25 27 25 25 22 23 23 22 23 20 9 6 8 11 11 13 15 15 15 14 14 14 14 15 16 13 11 11 11 10 9 8 7 6 5 4 3 2 0 1 2 3 5 4 4 5 5 4 5 6 7 8 9 9 10 10 11 11 11 10 10 12 12
9 11 4 4 3 6 3 9 16 23 11 9 15 13 3 2 3 6 16 26 29 25 24 22 23 27 24 26 25 20 21 17 12 8 9 11 13 12 13 13 15 14 14 15 17 17 17 17 18 17 13 9 9 8 7 7 6 5 4 2 1 1 1 3 4 4 3 4 4 4 5 5 6 7 8 9 10 10 11 11 11 12 12 10 10 11
12 7 7 12 8 15 12 13 21 12 18 23 22 25 8 8 5 9 17 23 27 25 18 15 21 24 24 25 20 19 4 4 11 20 9 14 13 14 16 15 13 15 16 14 15 14 13 12 13 13 11 10 8 9 8 7 6 5 4 2 1 1 2 3 3 3 4 5 4 3 4 5 7 8 9 9 10 11 11 12 12 11 9 11 11 12
14 17 8 12 10 12 15 14 12 12 18 22 32 17 8 7 8 9 7 24 28 33 9 17 23 25 27 20 18 7 5 3 13 19 14 10 11 13 10 5 3 5 7 10 10 12 12 12 13 11 10 12 9 8 8 7 6 5 3 2 2 2 3 3 3 4 4 4 3 4 4 6 6 7 9 9 10 11 11 10 9 10 9 11 12 12
12 12 14 16 14 10 13 15 16 15 21 16 22 5 4 5 11 6 5 20 28 6 19 22 21 24 20 16 10 9 4 5 15 17 9 3 7 9 9 5 6 8 11 15 18 17 17 15 13 12 11 12 11 9 8 7 6 4 3 2 2 3 3 3 2 2 3 4 5 4 4 5 5 6 8 9 10 10 11 11 11 10 9 9 10 11
11 11 9 12 15 16 16 15 17 9 15 12 6 4 5 11 12 9 7 21 15 19 18 15 21 16 15 13 8 9 10 11 14 15 3 9 8 9 11 11 11 12 11 11 11 17 16 13 15 12 11 11 11 10 9 7 5 4 4 3 3 3 4 2 1 3 4 4 4 3 4 4 5 6 7 10 10 10 9 10 10 10 11 10 9 10
7 8 12 20 18 20 20 18 13 11 7 14 13 8 8 8 12 8 23 21 6 4 9 15 15 17 13 9 12 11 14 18 11 1 4 6 8 6 5 6 9 13 16 15 16 13 12 10 10 13 12 11 11 10 8 7 6 5 4 5 5 6 2 0 2 2 3 3 3 3 4 5 4 7 8 8 9 10 9 9 9 11 11 11 10 10
6 7 6 10 16 17 18 20 18 14 9 10 5 17 11 8 9 23 19 3 7 8 8 10 14 12 10 14 13 13 14 12 6 5 6 7 8 8 10 12 13 12 11 10 14 12 11 10 12 13 11 10 11 9 8 7 7 5 5 5 6 3 1 1 2 1 2 3 3 3 4 5 6 6 7 8 8 9 9 8 9 10 11 10 11 12
14 11 10 14 11 10 9 13 11 13 12 20 11 4 7 14 23 21 20 12 4 7 9 9 10 10 12 13 15 16 6 6 8 7 7 8 10 14 17 18 19 16 16 14 12 6 12 12 12 11 12 10 10 9 7 8 7 6 6 6 4 2 1 1 1 2 2 2 3 4 5 5 6 8 6 8 8 9 10 9 9 10 10 11 11 11
11 9 6 12 12 11 14 13 13 19 15 18 22 16 16 25 26 25 16 14 17 10 10 10 11 11 13 13 13 11 8 6 4 7 8 8 8 12 14 14 15 10 8 8 12 12 11 12 11 12 10 10 9 8 8 8 8 6 6 5 3 2 2 0 0 1 1 2 3 5 6 6 7 7 6 7 8 8 9 9 9 9 9 10 10 10
16 20 17 17 15 15 14 18 19 14 10 19 23 22 23 31 30 26 14 13 15 12 7 7 13 11 13 14 11 11 9 11 11 12 13 13 12 15 17 15 13 14 14 15 13 10 9 13 14 12 11 9 9 7 7 6 7 8 6 4 3 2 1 0 0 0 1 3 4 5 6 7 7 6 5 6 7 8 9 9 9 9 9 9 9 10
22 29 22 15 11 15 18 8 5 5 7 16 18 21 24 22 20 19 17 15 15 13 10 12 11 11 12 9 9 7 11 11 11 11 9 10 13 13 13 14 13 13 13 13 11 10 11 14 12 11 12 10 9 7 6 6 6 8 5 5 4 2 1 1 0 1 2 4 4 5 6 9 9 6 4 5 6 7 7 8 9 9 9 8 9 10
15 12 13 15 10 9 16 14 26 21 15 15 22 25 24 17 18 17 16 19 20 10 10 12 12 13 15 14 16 16 14 12 13 12 11 11 15 17 19 20 16 14 18 15 13 15 14 18 12 12 12 12 9 7 6 7 5 4 5 5 4 3 2 1 2 3 3 5 4 4 4 6 7 9 8 5 5 6 7 7 8 8 8 9 9 8
15 11 16 18 15 19 20 19 25 25 22 19 18 18 20 24 21 15 15 14 14 10 11 12 8 8 9 13 17 14 14 14 15 13 13 15 16 19 19 19 19 11 6 8 13 14 16 19 17 12 12 11 10 8 7 6 6 5 5 5 4 4 3 3 3 4 4 4 3 4 5 5 8 9 9 8 6 6 6 7 7 8 9 8 9 9
9 17 16 10 17 22 18 20 15 16 9 12 22 24 22 21 20 20 17 12 6 9 10 7 11 14 14 19 17 14 12 13 17 18 17 14 14 16 17 19 13 13 15 14 13 17 15 14 12 11 12 11 9 9 7 7 6 6 5 5 4 4 5 5 3 4 4 4 3 4 3 4 4 5 7 9 10 7 5 6 7 8 8 10 8 11
6 16 8 9 17 16 18 21 20 18 18 19 24 26 27 27 23 16 9 11 14 15 14 14 15 14 15 15 14 14 16 14 14 14 17 17 19 21 19 19 17 15 10 9 9 11 13 12 19 13 11 9 9 8 8 8 6 5 5 4 4 4 5 4 4 5 5 4 3 4 4 4 4 4 5 6 8 11 12 8 11 9 8 8 18 22
18 18 14 18 17 21 21 26 24 25 23 19 22 24 22 18 16 16 18 21 21 21 18 18 17 12 12 11 10 15 16 16 17 16 15 14 16 21 22 24 19 13 13 14 14 12 16 15 15 14 11 9 9 8 8 8 6 5 5 5 4 4 6 5 5 5 4 3 2 4 4 4 4 4 4 4 6 6 8 14 12 12 16 19 20 21
Wind_Direction
37 180 219 215 226 227 232 194 194 195 155 106 109 149 237 236 275 275 229 267 356 321 254 260 244 256 265 269 274 234 190 228 234 228 229 224 216 214 217 218 218 216 218 193 202 201 198 197 194 194 188 207 214 209 186 185 211 204 204 180 235 240 242 232 258 270 248 288 315 309 279 280 291 290 282 266 266 278 275 275 0 340 332 325 330 336
64 311 249 222 223 210 215 157 101 87 94 161 184 202 271 210 260 266 281 16 317 162 289 296 266 258 259 270 270 252 167 233 217 229 236 227 220 219 218 220 216 218 159 179 212 213 206 197 197 195 197 189 185 212 183 194 208 204 205 197 227 255 249 243 227 229 261 232 230 271 281 285 295 301 297 304 313 300 294 302 340 332 335 339 336 332
15 228 244 216 194 98 77 124 135 154 156 82 197 229 301 269 249 280 315 8 308 137 261 293 286 270 265 262 268 258 233 246 209 210 235 216 222 225 221 223 216 199 204 200 211 202 200 197 197 194 201 205 205 187 190 199 205 230 226 216 213 226 219 237 236 223 242 258 273 242 267 271 281 261 255 263 274 288 297 317 334 334 339 340 332 328
292 271 253 172 135 105 57 82 105 70 72 145 113 182 238 232 11 305 299 6 302 183 295 306 289 275 266 254 255 265 242 252 222 224 236 211 225 222 220 210 204 207 201 204 201 200 194 194 195 197 203 209 203 213 211 214 214 218 222 216 209 230 225 233 246 238 229 253 264 271 267 271 252 261 269 268 272 279 300 305 303 294 295 296 294 299
218 199 57 113 131 139 153 132 125 155 243 268 198 220 257 267 235 199 268 317 282 335 103 290 282 271 235 237 267 349 351 243 261 257 256 238 235 239 236 210 206 208 201 203 200 196 192 194 200 195 201 193 196 205 206 205 204 198 208 208 203 220 226 226 241 243 250 275 296 280 277 261 267 277 264 264 262 243 261 279 291 282 278 274 275 278
274 250 141 88 101 87 134 197 215 148 237 318 228 206 223 231 264 293 343 2 4 327 334 27 328 287 315 229 250 271 347 297 266 247 259 242 227 221 230 225 208 216 203 201 197 194 192 192 189 199 198 191 203 208 213 202 199 184 208 208 223 231 236 237 238 228 225 241 260 295 314 321 315 311 313 310 321 318 319 308 291 278 265 267 267 264
228 13 137 185 148 153 181 209 244 159 190 50 268 200 221 226 205 340 346 28 309 232 317 35 120 287 135 240 248 268 249 279 265 222 260 258 233 217 229 223 208 205 202 202 195 191 190 192 188 198 196 196 199 214 203 196 199 193 197 202 213 225 234 241 242 226 226 245 237 245 255 252 263 274 273 264 280 282 288 289 293 290 287 280 282 286
97 22 68 64 105 136 193 258 240 155 120 238 255 113 98 109 128 182 108 197 245 312 292 239 179 268 286 228 236 249 270 263 279 273 258 256 240 228 230 221 212 205 200 193 196 193 195 189 190 191 194 195 201 200 187 198 195 198 200 183 217 228 244 246 245 240 215 230 245 259 261 262 262 254 275 286 277 272 280 289 288 290 284 280 276 282
126 165 161 128 106 149 207 210 190 162 149 220 212 132 121 122 171 147 101 239 238 6 294 207 89 299 258 268 345 95 201 263 260 263 268 259 242 234 230 220 213 206 199 191 192 195 192 193 193 187 192 201 198 194 193 196 202 190 178 183 202 236 239 251 245 243 232 223 237 243 264 279 268 271 278 283 281 285 283 281 286 285 284 282 276 271
303 157 207 155 147 229 221 267 186 168 200 240 138 95 84 74 69 103 117 185 315 58 276 180 195 196 279 173 149 355 192 253 250 249 254 260 255 234 229 225 211 198 195 199 201 194 194 192 188 191 189 188 200 199 188 193 178 190 177 181 191 237 237 244 253 239 243 231 234 255 260 269 284 287 291 283 287 287 286 287 288 287 287 285 284 278
289 292 152 149 199 202 133 66 125 55 89 121 104 87 6 41 36 31 69 82 34 269 262 222 191 165 282 199 178 151 198 201 219 273 279 275 272 252 235 209 199 195 195 196 195 193 190 185 184 179 189 197 202 197 191 200 193 184 186 193 195 228 242 244 251 246 254 247 237 249 260 272 288 297 295 300 294 296 303 300 298 296 294 290 285 284
354 58 180 254 86 108 102 79 41 92 137 129 72 99 13 330 13 37 338 40 169 266 257 263 180 185 214 284 223 235 284 216 177 219 242 264 268 255 219 215 202 196 196 191 184 185 181 181 192 179 196 202 212 203 205 208 189 182 199 204 219 228 244 253 252 259 263 254 259 256 267 281 285 289 294 293 297 304 302 299 299 300 297 292 287 282
274 213 229 315 201 129 113 81 352 11 25 93 77 38 80 274 19 316 32 300 195 231 236 66 158 313 237 244 225 248 254 238 228 222 232 254 271 251 221 212 203 197 187 186 189 183 189 189 185 190 198 200 209 210 205 194 182 188 197 212 226 259 245 258 262 267 271 273 274 279 283 287 287 289 289 290 291 293 293 297 296 299 295 295 293 289
278 346 126 214 86 219 134 150 241 309 218 118 155 148 105 285 74 263 269 231 298 288 253 154 132 249 273 279 218 232 237 235 237 229 239 252 271 272 217 214 202 197 193 191 190 194 193 191 189 187 192 196 199 200 191 186 185 186 199 206 223 259 258 266 272 268 279 281 283 283 285 284 286 285 284 283 286 290 289 291 291 290 290 291 286 292
305 308 262 150 238 155 183 208 184 160 158 197 122 150 184 140 156 239 212 247 261 260 220 238 56 238 23 241 242 201 222 240 258 275 259 281 246 247 232 215 205 196 197 191 196 197 195 193 188 187 191 193 192 185 181 183 189 181 203 209 231 270 275 269 272 282 288 295 296 293 281 275 274 274 276 277 280 290 296 293 289 285 285 284 290 287
221 243 257 330 233 142 184 332 108 105 63 177 164 81 100 226 126 222 205 209 304 339 311 154 217 190 206 310 287 215 288 269 278 264 273 272 294 214 223 211 207 200 193 195 199 200 202 195 190 191 192 191 186 181 175 184 182 186 211 207 230 251 272 271 278 284 281 285 286 282 277 273 270 277 282 285 288 289 288 289 287 286 284 284 287 289
30 273 326 358 71 118 181 112 217 142 209 213 113 198 211 163 135 6 355 65 59 67 266 141 276 264 335 265 210 240 257 259 248 259 248 252 252 225 236 225 208 201 197 196 201 201 195 196 201 195 189 189 183 174 182 189 183 191 201 220 254 264 271 272 278 275 282 282 288 280 276 276 277 279 288 292 294 291 288 284 286 287 289 289 289 291
178 252 198 126 220 336 226 191 63 31 146 102 198 235 170 148 110 128 221 325 60 215 270 91 260 286 312 288 45 112 222 257 251 244 239 241 213 234 242 226 207 203 202 200 204 201 197 197 195 195 197 191 185 180 174 184 181 184 193 211 251 266 273 270 267 279 275 287 282 282 281 281 283 291 291 289 288 290 290 288 288 290 292 293 294 293
127 276 225 324 81 317 34 128 18 350 43 147 189 246 116 224 218 308 86 268 268 255 270 278 277 269 245 260 203 235 212 237 245 246 222 234 225 234 241 230 213 201 194 198 200 197 198 199 195 192 194 191 185 171 166 166 163 174 199 220 221 249 251 257 265 268 276 264 274 277 286 292 297 293 290 288 288 291 291 294 294 294 293 294 294 294
89 194 293 258 160 250 16 133 204 185 355 54 260 38 307 102 174 133 197 192 115 251 353 278 310 271 128 193 214 249 194 212 222 242 223 222 223 225 231 218 205 198 203 202 199 200 200 198 194 190 186 179 179 173 171 166 160 180 208 218 241 251 261 279 283 286 285 277 276 286 289 293 294 293 290 291 297 295 295 296 296 296 296 294 296 294
192 125 243 74 300 98 194 189 210 169 169 146 159 249 347 228 230 109 323 157 174 199 216 285 295 278 238 181 196 231 202 199 196 225 216 220 228 227 222 212 203 202 203 204 200 198 196 194 192 192 180 175 160 154 150 160 171 191 196 216 228 242 263 271 276 279 273 283 283 294 300 300 300 295 295 298 297 296 296 297 295 296 295 298 293 297
125 173 215 159 306 210 236 256 241 178 187 178 177 205 189 141 154 137 256 88 152 204 235 166 254 276 267 161 171 207 205 187 212 212 214 217 228 223 222 217 201 202 211 202 200 193 192 192 190 177 168 156 150 160 165 174 165 187 212 214 229 249 260 272 278 263 276 275 287 294 294 290 291 297 302 302 301 296 297 297 298 300 300 294 294 296
156 140 160 218 222 232 204 212 148 188 64 198 198 230 166 191 137 164 241 232 96 243 96 171 70 271 218 164 157 189 192 193 216 201 212 219 225 222 225 218 211 210 206 200 194 195 192 189 182 176 171 171 175 176 175 175 180 198 212 217 239 245 262 264 266 271 276 294 303 293 289 299 306 308 304 301 297 295 299 300 300 301 297 297 299 295
91 119 225 258 309 349 333 0 45 39 88 318 259 171 146 194 199 209 226 173 178 193 184 291 210 260 249 111 171 191 229 260 99 182 201 225 226 231 223 213 205 206 207 193 192 192 189 177 172 170 174 171 173 176 183 184 181 190 198 218 238 248 266 264 263 276 301 299 289 295 306 312 309 304 300 297 296 296 299 299 298 297 295 296 296 297
138 245 175 275 330 318 342 357 31 358 76 216 223 200 204 227 224 221 66 132 203 220 158 134 248 257 263 95 115 74 291 259 232 236 209 233 235 228 218 215 208 203 192 191 194 191 177 180 187 188 175 174 177 176 175 175 176 176 210 212 232 255 248 259 279 304 293 293 307 316 318 311 308 301 298 296 298 298 298 296 297 296 299 302 301 302
176 167 149 212 228 241 248 238 232 219 210 211 264 210 202 207 206 118 246 201 223 220 151 204 245 251 268 228 137 229 252 270 239 220 236 217 236 222 215 210 204 195 202 198 191 180 194 196 182 174 177 172 175 174 166 164 171 186 199 214 231 246 263 282 286 284 303 319 323 321 314 307 302 299 299 300 300 299 299 297 296 302 304 308 307 307
188 178 196 213 218 230 238 248 76 104 78 184 226 201 219 209 213 214 239 240 225 229 216 227 236 268 279 273 258 255 254 239 272 255 229 236 232 230 218 209 205 200 198 198 195 196 179 181 195 181 170 174 167 160 164 171 179 186 190 222 229 232 267 282 306 322 331 331 323 313 306 302 299 301 302 303 301 300 299 299 304 310 312 314 310 307
94 215 220 225 228 234 241 252 194 160 179 213 209 220 220 208 201 205 215 236 233 230 248 241 249 248 258 261 266 269 265 272 270 272 273 247 230 214 216 211 202 199 204 200 193 191 198 197 174 176 175 161 165 165 175 169 173 180 198 220 219 228 282 312 339 336 336 329 315 303 298 297 299 301 301 300 299 299 303 309 313 315 315 315 313 309
187 226 234 229 241 246 247 252 203 189 211 210 209 218 218 213 203 209 227 236 232 221 242 255 246 243 251 256 265 262 263 263 269 274 274 246 235 200 182 193 199 201 203 200 205 202 195 191 184 172 166 171 169 180 172 166 170 173 204 195 197 97 349 7 348 335 326 316 300 294 295 298 302 301 300 302 303 309 314 317 317 318 318 316 310 306
154 241 244 239 252 245 249 247 227 196 234 252 239 230 229 210 208 213 225 231 230 235 246 254 257 255 256 258 258 265 267 266 276 285 286 222 224 207 206 212 205 203 204 206 205 202 196 187 170 170 171 177 183 172 165 170 173 183 183 193 113 38 16 22 346 325 315 300 292 294 297 301 302 302 304 307 313 318 322 322 323 320 316 310 304 300
176 241 232 243 258 253 253 249 218 229 225 245 253 255 241 210 219 223 229 240 243 246 249 250 257 265 262 262 264 269 277 283 281 276 268 261 240 217 216 216 210 209 211 209 204 198 187 175 171 173 180 185 172 168 171 169 171 165 163 144 95 52 29 27 329 307 296 289 289 294 301 303 305 306 306 315 319 325 327 325 321 316 310 305 302 297
181 277 68 79 235 256 251 246 211 208 221 237 254 253 247 221 224 235 233 233 233 240 242 254 262 257 264 269 265 268 270 269 264 264 267 266 253 222 223 224 214 214 211 206 201 186 177 180 182 183 183 172 167 165 163 162 161 160 154 133 107 79 36 347 306 291 282 281 289 297 302 303 302 305 313 324 329 328 325 318 315 312 308 305 304 302
189 164 212 221 241 249 261 102 134 117 109 279 248 242 243 237 231 242 247 243 230 230 238 241 244 248 257 273 283 274 262 256 260 261 260 265 249 213 220 222 217 215 212 201 192 189 187 187 187 179 167 164 166 162 163 153 152 156 145 123 110 80 0 300 281 279 277 282 290 297 301 297 302 314 322 330 328 323 319 315 312 311 309 306 303 299
180 204 223 193 237 245 217 125 117 143 230 239 261 213 211 234 232 233 241 244 245 219 227 233 248 258 266 265 257 263 268 264 256 259 242 238 238 220 223 221 217 215 210 196 192 189 187 178 171 172 169 162 154 148 139 140 144 139 123 115 114 101 272 278 280 271 275 282 291 293 290 297 318 323 328 328 323 320 317 315 310 307 303 302 301 297
193 201 225 184 242 237 109 111 97 223 235 242 32 246 176 210 216 221 234 244 250 245 235 242 250 256 256 258 255 257 262 268 274 276 249 218 218 216 214 215 215 212 197 189 184 181 180 177 166 151 148 150 141 136 132 132 133 121 106 113 117 155 240 260 268 272 275 293 287 283 293 323 330 331 329 325 322 318 315 311 307 306 306 305 305 309
199 195 174 235 168 41 110 195 230 239 257 312 289 261 194 170 207 205 249 249 252 247 237 236 246 251 252 253 255 255 258 277 303 268 230 230 209 212 216 217 214 200 194 190 181 182 174 172 170 162 152 137 126 132 133 131 126 112 123 117 150 193 234 251 259 271 283 285 280 297 329 336 332 333 327 323 320 316 313 310 307 309 309 305 306 307
209 199 192 240 178 235 224 222 240 298 304 279 281 258 160 188 152 187 254 263 262 249 227 231 243 247 249 249 253 258 296 341 294 285 222 222 219 212 213 218 202 198 195 187 180 173 161 148 142 133 122 124 127 129 133 130 120 120 125 128 193 203 236 247 255 270 280 274 293 326 340 337 336 331 326 322 318 314 312 312 310 308 306 308 310 310
207 216 198 235 228 214 244 252 257 242 247 255 246 272 107 193 176 196 212 271 266 263 187 205 230 239 244 247 248 244 73 336 280 271 264 216 213 209 225 225 170 163 145 128 116 119 128 129 112 105 123 124 123 123 124 121 124 126 139 174 194 207 234 238 243 265 275 288 316 338 339 334 334 328 323 317 312 309 307 304 299 301 309 309 311 309
218 227 226 220 241 232 235 237 240 240 247 244 273 273 209 182 171 109 198 258 262 268 151 202 219 233 238 237 235 109 146 228 253 257 272 159 204 197 187 171 140 142 144 146 146 141 130 121 124 123 116 122 126 133 125 124 117 131 168 185 196 218 227 224 245 264 288 312 332 336 331 330 330 321 312 307 302 304 304 305 306 303 304 302 300 299
194 210 216 236 235 232 240 241 244 220 253 251 262 166 185 123 113 122 236 258 264 127 194 181 215 219 224 227 157 165 175 230 247 259 202 187 182 179 166 155 141 132 128 125 128 116 109 124 121 120 127 132 134 131 130 123 135 153 179 193 209 217 218 217 251 288 309 316 328 326 327 329 323 310 304 300 299 298 298 300 303 306 307 304 299 299
182 218 204 223 220 230 228 247 257 263 255 257 240 140 141 144 127 190 236 255 84 171 171 192 202 211 208 177 159 191 214 212 229 173 119 117 111 110 106 119 133 142 136 133 130 129 126 130 129 132 134 133 132 130 131 128 141 173 185 200 210 216 205 201 304 315 316 322 320 325 325 329 315 304 297 292 294 298 300 304 304 308 307 306 303 298
204 193 232 212 230 225 228 233 241 250 243 248 137 156 152 106 220 231 245 72 274 276 189 194 202 207 187 173 194 205 217 206 121 150 126 147 141 136 127 121 108 88 68 90 132 130 123 120 119 118 118 123 129 130 135 141 158 172 181 206 216 188 105 68 329 326 318 324 323 321 330 321 310 297 296 296 297 304 305 305 304 302 304 303 303 303
183 187 185 196 216 230 235 243 244 254 233 204 135 89 198 203 241 242 250 257 231 206 190 213 205 207 176 200 205 211 188 145 171 161 166 142 148 150 144 142 139 142 144 140 133 146 131 125 127 127 128 130 131 135 141 145 154 173 187 209 189 131 110 40 350 326 317 320 324 345 332 318 307 305 300 301 304 307 310 310 310 306 304 302 304 303
149 213 193 217 183 199 208 210 218 219 232 142 156 193 199 210 232 238 232 244 244 216 199 197 215 198 190 196 202 220 206 161 141 161 149 160 143 150 108 92 96 103 100 108 135 136 124 112 121 124 128 133 137 140 147 152 156 174 194 190 131 139 102 70 4 309 309 329 349 349 331 315 307 300 300 302 309 311 308 312 312 310 306 305 305 311
161 218 199 216 187 199 207 216 223 225 188 178 193 214 210 214 224 236 225 227 240 235 194 187 211 202 196 200 203 194 189 201 191 174 170 172 161 155 160 159 158 153 148 147 150 142 132 133 135 129 128 136 136 137 142 147 158 176 183 157 133 146 129 97 256 240 358 14 12 353 325 314 307 305 301 308 313 316 316 314 317 313 310 306 312 317
199 213 218 233 221 223 243 249 292 219 177 199 215 222 231 229 227 236 233 235 237 231 167 201 205 192 199 196 184 205 203 194 171 179 174 162 159 128 112 127 120 142 139 113 124 139 129 106 101 120 130 136 143 140 142 153 164 172 165 145 137 135 122 169 171 70 41 34 21 346 326 319 315 312 312 316 314 309 307 308 315 313 310 314 320 323
235 218 222 230 215 208 242 212 241 232 217 195 216 226 235 235 228 220 223 229 239 214 191 215 202 190 190 181 197 198 203 183 181 180 164 154 162 164 163 152 149 156 156 155 150 134 133 135 130 136 139 141 149 143 145 155 166 160 141 143 141 130 149 182 107 78 47 37 12 338 325 318 315 323 326 325 320 308 309 313 309 308 307 319 315 301
244 199 233 222 217 217 235 223 228 233 229 213 224 234 238 240 238 232 228 230 233 217 205 210 188 196 174 191 204 199 198 178 174 173 171 171 170 165 162 163 145 142 122 125 142 135 124 140 139 142 142 142 148 143 148 156 156 153 146 139 135 139 156 127 81 72 52 36 15 336 315 311 319 326 321 323 324 317 311 311 304 312 321 321 320 312
204 155 229 159 218 233 241 252 260 258 248 236 237 238 239 240 235 231 227 234 239 220 217 204 191 197 185 206 197 193 185 183 184 177 171 170 168 169 171 159 156 151 146 145 155 161 161 156 138 140 136 136 140 142 150 157 153 154 150 142 142 151 138 107 90 81 64 44 16 335 308 303 307 316 319 319 322 314 295 300 312 322 318 325 318 329
112 208 187 178 232 232 222 229 225 244 243 235 235 235 234 236 237 234 220 219 223 223 214 207 216 216 208 205 189 185 189 188 182 172 173 174 174 171 155 148 138 140 136 135 136 146 137 136 124 137 131 132 138 144 152 153 151 151 142 137 145 146 123 113 105 80 59 46 8 322 310 316 317 317 319 320 323 325 324 317 332 339 336 330 339 342
207 211 194 218 214 234 224 231 226 230 240 237 243 242 236 233 234 225 220 223 222 220 214 211 217 215 216 215 193 189 193 181 181 173 170 173 180 168 159 151 150 150 144 147 142 149 144 142 139 119 127 136 144 149 153 147 146 147 144 141 131 132 128 117 98 80 69 44 359 315 316 317 320 321 323 318 316 314 321 326 328 346 355 350 345 344